Regional Weather Roundup
Issued by NWS

Home | Current Version | Previous Version | Graphics & Text | Print | Product List | Glossary On
Versions: 1 2 3 4 5 6 7 8 9 10 11 12 13 14 15 16 17 18 19 20 21 22 23 24 25 26 27 28 29 30 31 32 33 34 35 36 37 38 39 40 41 42 43 44 45 46 47 48 49 50
000
ASUS43 KLMK 060102
RWRKY
KENTUCKY REGIONAL WEATHER ROUNDUP
NATIONAL WEATHER SERVICE LOUISVILLE KY
900 PM EDT THU MAY 05 2016

NOTE "FAIR" INDICATES FEW OR NO CLOUDS BELOW 12,000 FEET
WITH NO SIGNIFICANT WEATHER AND/OR OBSTRUCTIONS TO VISIBILITY.

KYZ001>023-026-027-061>063-070>075-060200-
WESTERN AND SOUTH CENTRAL KENTUCKY

CITY           SKY/WX    TMP DP  RH WIND       PRES   REMARKS
PADUCAH        CLEAR     57  44  62 CALM      29.99S
HENDERSON      CLEAR     55  46  71 SW5       29.95S
OWENSBORO      CLEAR     56  47  71 CALM      29.95S
HOPKINSVILLE   CLOUDY    54  44  70 NW5       29.97R
BOWLING GREEN  PTCLDY    55  44  66 NW5       29.95R
GLASGOW        NOT AVBL
$$

KYZ024-025-028>034-038-045-046-053-060200-
NORTH CENTRAL KENTUCKY

CITY           SKY/WX    TMP DP  RH WIND       PRES   REMARKS
LOUISVILLE/SDF MOCLDY    57  45  64 W9        29.90S
LOUISVILLE/LOU CLOUDY    57  46  66 W7        29.91R
FORT KNOX      PTCLDY    51  46  82 W5        29.90S
$$

KYZ035>037-039>044-047>052-055>060-089>105-060200-
NORTHEAST KENTUCKY

CITY           SKY/WX    TMP DP  RH WIND       PRES   REMARKS
LEXINGTON      MOCLDY    49  44  83 W5        29.89S
COVINGTON      MOCLDY    53  48  83 W8        29.87R
FRANKFORT      PTCLDY    50  44  80 W3        29.89R
$$

KYZ054-064>069-076>088-106>120-060200-
SOUTHEAST KENTUCKY

CITY           SKY/WX    TMP DP  RH WIND       PRES   REMARKS
JACKSON        CLOUDY    50  42  74 NW6       29.86R
LONDON         CLOUDY    50  41  71 NW5       29.89R
SOMERSET       NOT AVBL
MIDDLESBORO    NOT AVBL
MONTICELLO     CLOUDY    51  43  74 NW9       29.93R
$$





USA.gov is the U.S. government's official web portal to all federal, state and local government web resources and services.